• In Hungary
  • List of Countries
  • For 7 days
  • Water Temperature
  • Satellite Maps
  • Weather Map
  • News
  • Weather Widgets
  • user-avatar
    Login

    Hourly Weather Horodnytsya

    Today, 13 December, Wednesday

    Time Temperature Precipitation Wind Pressure Humidity
    00:00 +5°C° 0 mm 2 mps 741 mmHg 80%
    01:00 +5°C° 0 mm 2 mps 741 mmHg 81%
    02:00 +5°C° 0 mm 2 mps 741 mmHg 81%
    03:00 +5°C° 0 mm 2 mps 741 mmHg 82%
    04:00 +5°C° 0 mm 2 mps 741 mmHg 84%
    05:00 +5°C° 0 mm 2 mps 741 mmHg 85%
    06:00 +6°C° 0 mm 1 mps 741 mmHg 85%
    07:00 +6°C° 0 mm 1 mps 741 mmHg 86%
    08:00 +5°C° 0 mm 1 mps 741 mmHg 85%
    09:00 +6°C° 0 mm 1 mps 741 mmHg 87%
    10:00 +5°C° 0 mm 2 mps 742 mmHg 89%
    11:00 +6°C° 0 mm 2 mps 742 mmHg 91%
    12:00 +5°C° 0 mm 3 mps 742 mmHg 92%
    13:00 +4°C° 0 mm 3 mps 742 mmHg 93%
    14:00 +4°C° 0 mm 4 mps 742 mmHg 94%
    15:00 +3°C° 0.2 mm 4 mps 742 mmHg 93%
    16:00 +3°C° 0.2 mm 4 mps 742 mmHg 93%
    17:00 +1°C° 0.2 mm 4 mps 742 mmHg 93%
    18:00 +1°C° 0.6 mm 4 mps 742 mmHg 93%
    19:00 +2°C° 0.6 mm 3 mps 742 mmHg 93%
    20:00 +2°C° 0.6 mm 3 mps 742 mmHg 93%
    21:00 +1°C° 0.3 mm 3 mps 741 mmHg 94%
    22:00 +2°C° 0.3 mm 2 mps 741 mmHg 94%
    23:00 +2°C° 0.3 mm 2 mps 741 mmHg 95%

    Tomorrow, 14 December, Thursday

    Time Temperature Precipitation Wind Pressure Humidity
    00:00 +2°C° 0.1 mm 2 mps 740 mmHg 95%
    01:00 +2°C° 0.1 mm 2 mps 740 mmHg 95%
    02:00 +2°C° 0.1 mm 2 mps 740 mmHg 95%
    03:00 +2°C° 0.2 mm 2 mps 740 mmHg 95%
    04:00 +3°C° 0.2 mm 1 mps 739 mmHg 96%
    05:00 +3°C° 0.2 mm 1 mps 739 mmHg 96%
    06:00 +3°C° 0.1 mm 1 mps 739 mmHg 96%
    07:00 +3°C° 0.1 mm 1 mps 738 mmHg 96%
    08:00 +3°C° 0.1 mm 1 mps 738 mmHg 97%
    09:00 +3°C° 0 mm 1 mps 738 mmHg 95%
    10:00 +3°C° 0 mm 1 mps 738 mmHg 94%
    11:00 +3°C° 0 mm 2 mps 738 mmHg 92%
    12:00 +3°C° 0 mm 2 mps 738 mmHg 91%
    13:00 +3°C° 0 mm 2 mps 737 mmHg 90%
    14:00 +3°C° 0 mm 3 mps 737 mmHg 89%
    15:00 +2°C° 0 mm 3 mps 737 mmHg 90%
    16:00 +2°C° 0 mm 3 mps 737 mmHg 92%
    17:00 +1°C° 0 mm 3 mps 737 mmHg 93%
    18:00 +1°C° 0 mm 3 mps 737 mmHg 94%
    19:00 +1°C° 0 mm 3 mps 737 mmHg 94%
    20:00 +1°C° 0 mm 3 mps 737 mmHg 95%
    21:00 +2°C° 0.1 mm 3 mps 737 mmHg 93%
    22:00 +2°C° 0.1 mm 3 mps 737 mmHg 92%
    23:00 +2°C° 0.1 mm 3 mps 737 mmHg 91%

    Day after tomorrow, 15 December, Friday

    Time Temperature Precipitation Wind Pressure Humidity
    00:00 +2°C° 0 mm 3 mps 737 mmHg 91%
    01:00 +2°C° 0 mm 3 mps 737 mmHg 91%
    02:00 +1°C° 0 mm 3 mps 737 mmHg 91%
    03:00 +2°C° 0 mm 2 mps 737 mmHg 90%
    04:00 +2°C° 0 mm 2 mps 737 mmHg 89%
    05:00 +3°C° 0 mm 1 mps 737 mmHg 89%
    06:00 +2°C° 0 mm 2 mps 737 mmHg 89%
    07:00 +2°C° 0 mm 2 mps 737 mmHg 89%
    08:00 +1°C° 0 mm 3 mps 737 mmHg 89%
    09:00 +2°C° 0 mm 3 mps 737 mmHg 86%
    10:00 +3°C° 0 mm 4 mps 737 mmHg 83%
    11:00 +3°C° 0 mm 4 mps 737 mmHg 80%
    12:00 +4°C° 0 mm 4 mps 737 mmHg 78%
    13:00 +5°C° 0 mm 5 mps 736 mmHg 76%
    14:00 +5°C° 0 mm 5 mps 736 mmHg 75%
    15:00 +5°C° 0 mm 5 mps 736 mmHg 77%
    16:00 +5°C° 0 mm 5 mps 735 mmHg 79%
    17:00 +5°C° 0 mm 5 mps 735 mmHg 81%
    18:00 +5°C° 0.1 mm 5 mps 735 mmHg 81%
    19:00 +5°C° 0.1 mm 5 mps 736 mmHg 81%
    20:00 +6°C° 0.1 mm 5 mps 736 mmHg 81%
    21:00 +6°C° 0 mm 4 mps 736 mmHg 81%
    22:00 +6°C° 0 mm 4 mps 736 mmHg 81%
    23:00 +6°C° 0 mm 4 mps 736 mmHg 81%

    16 December, Saturday

    Time Temperature Precipitation Wind Pressure Humidity
    00:00 +5°C° 0.1 mm 4 mps 735 mmHg 83%
    01:00 +5°C° 0.1 mm 4 mps 735 mmHg 85%
    02:00 +5°C° 0.1 mm 4 mps 735 mmHg 87%
    03:00 +5°C° 0.1 mm 4 mps 734 mmHg 88%
    04:00 +5°C° 0.1 mm 5 mps 733 mmHg 89%
    05:00 +4°C° 0.1 mm 6 mps 733 mmHg 90%
    06:00 +4°C° 0 mm 6 mps 732 mmHg 90%
    07:00 +4°C° 0 mm 6 mps 732 mmHg 90%
    08:00 +4°C° 0 mm 7 mps 732 mmHg 90%
    09:00 +5°C° 0 mm 7 mps 732 mmHg 85%
    10:00 +6°C° 0 mm 7 mps 732 mmHg 80%
    11:00 +8°C° 0 mm 7 mps 732 mmHg 74%
    12:00 +8°C° 0 mm 6 mps 732 mmHg 73%
    13:00 +9°C° 0 mm 6 mps 732 mmHg 71%
    14:00 +9°C° 0 mm 5 mps 732 mmHg 69%
    15:00 +8°C° 0 mm 5 mps 732 mmHg 72%
    16:00 +8°C° 0 mm 4 mps 732 mmHg 75%
    17:00 +7°C° 0 mm 4 mps 733 mmHg 79%
    18:00 +8°C° 0 mm 3 mps 733 mmHg 80%
    19:00 +7°C° 0 mm 3 mps 734 mmHg 82%
    20:00 +7°C° 0 mm 2 mps 734 mmHg 83%
    21:00 +7°C° 0.5 mm 2 mps 735 mmHg 86%
    22:00 +6°C° 0.5 mm 2 mps 735 mmHg 88%
    23:00 +6°C° 0.5 mm 2 mps 736 mmHg 91%

    17 December, Sunday

    Time Temperature Precipitation Wind Pressure Humidity
    00:00 +4°C° 0.5 mm 3 mps 736 mmHg 90%
    01:00 +4°C° 0.5 mm 4 mps 737 mmHg 89%
    02:00 +2°C° 0.5 mm 5 mps 737 mmHg 88%
    03:00 +2°C° 0.1 mm 5 mps 737 mmHg 87%
    04:00 +1°C° 0.1 mm 5 mps 737 mmHg 87%
    05:00 +1°C° 0.1 mm 5 mps 737 mmHg 86%
    06:00 +1°C° 0.6 mm 5 mps 737 mmHg 87%
    07:00 +1°C° 0.6 mm 5 mps 737 mmHg 88%
    08:00 0°C° 0.6 mm 5 mps 737 mmHg 89%
    09:00 -1°C° 1.3 mm 6 mps 737 mmHg 90%
    10:00 -1°C° 1.3 mm 6 mps 737 mmHg 91%
    11:00 -1°C° 1.3 mm 7 mps 736 mmHg 92%
    12:00 -2°C° 1.4 mm 7 mps 736 mmHg 92%
    13:00 -2°C° 1.4 mm 7 mps 736 mmHg 92%
    14:00 -2°C° 1.4 mm 7 mps 735 mmHg 92%
    15:00 -2°C° 0.8 mm 7 mps 735 mmHg 92%
    16:00 -2°C° 0.8 mm 7 mps 735 mmHg 92%
    17:00 -2°C° 0.8 mm 8 mps 735 mmHg 91%
    18:00 -2°C° 0.6 mm 8 mps 735 mmHg 91%
    19:00 -2°C° 0.6 mm 8 mps 735 mmHg 91%
    20:00 -2°C° 0.6 mm 8 mps 736 mmHg 90%
    21:00 -4°C° 0.4 mm 8 mps 736 mmHg 90%
    22:00 -4°C° 0.4 mm 8 mps 737 mmHg 90%
    23:00 -4°C° 0.4 mm 8 mps 737 mmHg 90%

    18 December, Monday

    Time Temperature Precipitation Wind Pressure Humidity
    00:00 -4°C° 0.3 mm 8 mps 738 mmHg 90%
    01:00 -4°C° 0.3 mm 8 mps 739 mmHg 90%
    02:00 -5°C° 0.3 mm 8 mps 739 mmHg 90%
    03:00 -4°C° 0.1 mm 7 mps 740 mmHg 89%
    04:00 -4°C° 0.1 mm 6 mps 740 mmHg 89%
    05:00 -4°C° 0.1 mm 6 mps 741 mmHg 88%
    06:00 -5°C° 0 mm 5 mps 741 mmHg 89%
    07:00 -5°C° 0 mm 5 mps 742 mmHg 89%
    08:00 -4°C° 0 mm 4 mps 743 mmHg 90%
    09:00 -4°C° 0 mm 4 mps 743 mmHg 89%
    10:00 -4°C° 0 mm 4 mps 744 mmHg 89%
    11:00 -4°C° 0 mm 4 mps 744 mmHg 89%
    12:00 -3°C° 0 mm 4 mps 744 mmHg 88%
    13:00 -3°C° 0 mm 4 mps 744 mmHg 88%
    14:00 -2°C° 0 mm 3 mps 744 mmHg 88%
    15:00 -4°C° 0 mm 3 mps 744 mmHg 89%
    16:00 -5°C° 0 mm 3 mps 745 mmHg 91%
    17:00 -6°C° 0 mm 3 mps 745 mmHg 92%
    18:00 -6°C° 0 mm 3 mps 745 mmHg 91%
    19:00 -6°C° 0 mm 3 mps 746 mmHg 91%
    20:00 -5°C° 0 mm 2 mps 746 mmHg 90%
    21:00 -6°C° 0 mm 2 mps 746 mmHg 90%
    22:00 -6°C° 0 mm 2 mps 746 mmHg 90%
    23:00 -6°C° 0 mm 2 mps 747 mmHg 90%
    Show more